星链-5421 (STARLINK-5421 )

导读

STARLINK-5421是美国SpaceX公司星链互联网卫星星座的一员,于2022年12月17日发射,属于星链低轨卫星组网的组成部分。 它运行在近550公里左右的近地轨道,重量约300千克,承担为全球偏远地区、特殊场景提供高速低延迟宽带互联网接入服务的功能,是星链全球卫星网络布局中一颗典型的第二代组网卫星,助力星链实现全球无缝覆盖的通信目标。

基本信息
目录编号:
54799
目录名称:
STARLINK-5421
国际标识:
2022-175AT
轨道中心:
EARTH
卫星名称:
星链-5421
卫星全名:
星链-5421 (STARLINK-5421 )
卫星状态:
在轨 (已飞行1278 天)
发射日期:
2022-12-17 UTC
国别 :
美国 (US)
星等 :
--
轨道信息
数据来源 国际轨道数据
星历时间: 2026-06-17T09:39:45+0800
7小时前
查看轨道信息
半长轴: 6917.907km
偏心率: 0.0000948
轨道倾角: 53.161°
近地点辐角 85.811°
升交点赤经 292.856°
平近点角 274.300°
近地点: 539.114km
远地点: 540.426km
周期: 95.438分钟
每日圈数: 15.088315
详细信息
固有亮度:
5
最大亮度:
2.5
卫星平台:
Starlink v1.5
覆盖范围:
全球
运营商:
太空探索技术公司
运营商所在国:
美国
制造商(研发单位):
太空探索技术公司
制造商所在国:
美国
使用方式:
暂无
卫星简介
星链(Starlink)计划是由太空探索技术公司(SpaceX)提出的一个巨型低轨卫星互联网星座项目,计划在2019年至2024年间在太空搭建由约1.2万颗卫星组成的“星链”网络,其中1584颗将部署在地球上空550千米处的近地轨道,并从2020年开始工作。该卫星仍在工作。
2D轨道图
3D轨道图
轨道高度分析图
轨道倾角分析图
轨道综合分析图
查看轨道综合分析图